Fargo, ND

4:22 AM CDT on May 28, 2017 (GMT -0500)
Hector International

Weather History for KFAR - December, 2013

Change the Weather History Date:

Sunday, December 8, 2013

  Actual Average Record
Temperature  
Mean Temperature -4 °F 16 °F  
Max Temperature 6 °F 25 °F 53 °F (1990)
Min Temperature -14 °F 8 °F -21 °F (1972)
Degree Days  
Heating Degree Days 69 48  
Month to date heating degree days 445 375  
Since 1 July heating degree days 2286 2337  
Cooling Degree Days 0 0  
Month to date cooling degree days 0 0  
Year to date cooling degree days 699 551  
Moisture  
Dew Point -7 °F    
Average Humidity 78    
Maximum Humidity 86    
Minimum Humidity 70    
Precipitation  
Precipitation 0.03 in 0.03 in 0.70 in (1889)
Month to date precipitation 0.72 0.22  
Year to date precipitation 31.61 22.00  
Snow  
Snow 0.30 in 0.40 in 4.10 in (1995)
Month to date snowfall 8.3 2.8  
Since 1 July snowfall 8.6 11.4  
Snow Depth 7.00 in    
Sea Level Pressure  
Sea Level Pressure 30.21 in    
Wind  
Wind Speed 7 mph (South)    
Max Wind Speed 13 mph    
Max Gust Speed 15 mph    
Visibility 4 miles    
Events Snow    
T = Trace of Precipitation, MM = Missing Value Source: NWS Daily Summary

Daily Weather History Graph

Daily Weather History Graph

Search for Another Location

Airport or City:

Trip Planner

Search our weather history database for the weather conditions in past years. The results will help you decide how hot, cold, wet, or windy it might be!

Date:

Astronomy

Dec. 08, 2013 Rise Set
Actual Time 8:00 AM CST 4:38 PM CST
Civil Twilight 7:24 AM CST 5:13 PM CST
Nautical Twilight 6:46 AM CST 5:52 PM CST
Astronomical Twilight 6:09 AM CST 6:28 PM CST
Moon 12:03 PM CST (12/8) 11:49 PM CST (12/8)
Length of Visible Light 9h 48m
Length of Day
8h 38m
Waxing Crescent, 40% of the Moon is Illuminated
Dec 8
Waxing Crescent
Dec 9
First Quarter
Dec 17
Full
Dec 25
Last Quarter
Jan 1
New

Hourly Weather History & Observations

Time (CST) Temp. Windchill Dew Point Humidity Pressure Visibility Wind Dir Wind Speed Gust Speed Precip Events Conditions
12:53 AM -13.0 °F -28.6 °F -18.9 °F 75% 30.55 in 8.0 mi South 6.9 mph - N/A   Clear
1:53 AM -11.9 °F -28.7 °F -18.9 °F 71% 30.52 in 10.0 mi South 8.1 mph - N/A   Scattered Clouds
2:53 AM -11.0 °F -24.6 °F -18.0 °F 71% 30.49 in 10.0 mi South 5.8 mph - N/A   Clear
3:53 AM -9.9 °F -21.5 °F -16.1 °F 74% 30.47 in 10.0 mi SSE 4.6 mph - N/A   Overcast
4:53 AM -9.0 °F -18.2 °F -16.1 °F 71% 30.43 in 10.0 mi SE 3.5 mph - N/A   Overcast
5:53 AM -8.0 °F -16.9 °F -15.0 °F 71% 30.41 in 10.0 mi SE 3.5 mph - N/A   Overcast
6:53 AM -8.0 °F -16.9 °F -14.1 °F 75% 30.39 in 8.0 mi East 3.5 mph - N/A   Overcast
7:53 AM -7.1 °F -18.1 °F -14.1 °F 72% 30.36 in 9.0 mi SE 4.6 mph - N/A   Scattered Clouds
8:22 AM -5.8 °F -16.7 °F -13.0 °F 71% 30.25 in 2.0 mi ESE 4.6 mph - 0.00 in Snow Light Snow
8:44 AM -5.8 °F -18.4 °F -11.2 °F 77% 30.24 in 1.5 mi SE 5.8 mph - 0.00 in Snow Light Snow
8:53 AM -4.0 °F -16.3 °F -11.0 °F 72% 30.33 in 1.8 mi SE 5.8 mph - 0.00 in Snow Light Snow
9:00 AM -4.0 °F -14.6 °F -9.4 °F 78% 30.24 in 2.5 mi SE 4.6 mph - 0.00 in Snow Light Snow
9:13 AM -2.2 °F -12.5 °F -9.4 °F 71% 30.24 in 1.8 mi SE 4.6 mph - 0.00 in Snow Light Snow
9:53 AM -0.9 °F -14.1 °F -7.1 °F 75% 30.32 in 1.2 mi SSE 6.9 mph - 0.00 in Snow Light Snow
10:10 AM -0.4 °F -15.7 °F -5.8 °F 78% 30.23 in 1.0 mi South 9.2 mph - 0.00 in Snow Light Snow
10:44 AM 1.4 °F -15.3 °F -5.8 °F 72% 30.21 in 1.2 mi SSE 11.5 mph - 0.00 in Snow Light Snow
10:53 AM 1.0 °F -14.9 °F -6.0 °F 72% 30.30 in 1.5 mi South 10.4 mph - 0.00 in Snow Light Snow
11:13 AM 1.4 °F -15.3 °F -5.8 °F 72% 30.20 in 2.0 mi SSE 11.5 mph - 0.00 in Snow Light Snow
11:18 AM 1.4 °F -13.5 °F -5.8 °F 72% 30.20 in 3.0 mi South 9.2 mph - 0.00 in Snow Light Snow
11:48 AM 1.4 °F -13.5 °F -4.0 °F 78% 30.18 in 1.8 mi South 9.2 mph - 0.00 in Snow Light Snow
11:53 AM 1.9 °F -13.8 °F -4.0 °F 76% 30.27 in 1.5 mi South 10.4 mph - 0.00 in Snow Light Snow
12:32 PM 3.2 °F -11.3 °F -2.2 °F 78% 30.14 in 2.5 mi SSE 9.2 mph - 0.01 in   Haze
12:42 PM 3.2 °F -10.3 °F -2.2 °F 78% 30.14 in 4.0 mi South 8.1 mph - 0.01 in   Haze
12:53 PM 3.9 °F -10.4 °F -2.9 °F 73% 30.22 in 5.0 mi South 9.2 mph - 0.01 in   Haze
1:24 PM 3.2 °F -11.3 °F -2.2 °F 78% 30.12 in 2.5 mi South 9.2 mph - 0.00 in Snow Light Snow
1:45 PM 5.0 °F -8.1 °F -2.2 °F 72% 30.12 in 1.5 mi South 8.1 mph - 0.00 in Snow Light Snow
1:53 PM 5.0 °F -8.1 °F -0.9 °F 76% 30.20 in 1.2 mi South 8.1 mph - 0.00 in Snow Light Snow
2:53 PM 6.1 °F -6.8 °F -0.9 °F 73% 30.17 in 1.8 mi South 8.1 mph - 0.01 in Snow Light Snow
3:10 PM 6.8 °F -4.8 °F -0.4 °F 72% 30.08 in 2.0 mi South 6.9 mph - 0.00 in Snow Light Snow
3:29 PM 6.8 °F -7.8 °F -0.4 °F 72% 30.08 in 2.0 mi South 10.4 mph - 0.00 in   Haze
3:32 PM 6.8 °F -8.6 °F -0.4 °F 72% 30.08 in 1.8 mi South 11.5 mph - 0.00 in   Haze
3:42 PM 6.8 °F -8.6 °F -0.4 °F 72% 30.08 in 2.0 mi South 11.5 mph - 0.00 in   Haze
3:50 PM 6.8 °F -8.6 °F -0.4 °F 72% 30.07 in 1.8 mi South 11.5 mph - 0.00 in   Haze
3:53 PM 6.1 °F -7.8 °F -0.9 °F 73% 30.16 in 1.5 mi South 9.2 mph - 0.00 in   Haze
4:10 PM 6.8 °F -5.9 °F -0.4 °F 72% 30.07 in 3.0 mi SSE 8.1 mph - N/A   Haze
4:29 PM 6.8 °F -5.9 °F -0.4 °F 72% 30.07 in 1.8 mi South 8.1 mph - 0.00 in Snow Light Snow
4:53 PM 5.0 °F -5.6 °F -0.0 °F 80% 30.15 in 3.0 mi South 5.8 mph - 0.00 in   Haze
5:53 PM 5.0 °F -6.9 °F -0.9 °F 76% 30.14 in 6.0 mi South 6.9 mph - 0.00 in   Haze
6:53 PM 3.9 °F -9.4 °F -0.9 °F 80% 30.14 in 7.0 mi SSW 8.1 mph - N/A   Mostly Cloudy
7:53 PM 1.9 °F -9.2 °F -2.9 °F 80% 30.13 in 5.0 mi SSW 5.8 mph - 0.00 in Snow Light Snow
8:53 PM -0.9 °F -12.7 °F -5.1 °F 83% 30.12 in 6.0 mi SSW 5.8 mph - 0.00 in   Clear
9:24 PM -2.2 °F -15.6 °F -5.8 °F 85% 30.03 in 1.8 mi SSW 6.9 mph - N/A   Mostly Cloudy
9:49 PM -0.4 °F -14.7 °F -5.8 °F 78% 30.03 in 1.5 mi WSW 8.1 mph - 0.00 in Snow Light Snow
9:53 PM 1.0 °F -14.0 °F -4.0 °F 79% 30.11 in 2.0 mi WSW 9.2 mph - 0.00 in Snow Light Snow
9:57 PM 1.4 °F -14.5 °F -4.0 °F 78% 30.03 in 4.0 mi WSW 10.4 mph - 0.00 in Snow Light Snow
10:53 PM -2.9 °F -18.8 °F -8.0 °F 79% 30.10 in 10.0 mi West 9.2 mph - 0.00 in   Mostly Cloudy
11:53 PM -5.1 °F -20.4 °F -11.0 °F 76% 30.11 in 10.0 mi West 8.1 mph - N/A   Partly Cloudy